DELTA 1 DEB, 10872

Orbit data source: Space-Track

DELTA 1 DEB, 10872 is space debris in SSO originally from a launch on Thu, 29 Jul 1976 UTC launched from the Air Force Western Test Range (AFWTR). Debris objects in space refer to the collection of defunct objects orbiting the Earth. Examples of debris include non-operational satellites, rocket bodies, and fragments generated from explosions, collisions, or faulty payload assembly.

Loading next visibility...
Identifier
10872, 1976-077DA
Orbit
SSO
Country
Flag of USUS
Related business
Manufacturer
Unknown
Mission
Spacecraft
Bus & Motor
Unknown
Mass
Unknown
Launch date (UTC)
1976-07-29 (49 years ago)
Launch vehicle
Unknown
Launch site
Air Force Western Test Range (AFWTR)
Object type
Payload
Rocket body
Debris
Shape & HBR
Unknown shape, 0.1 m
Radar Cross Section
Small (<0.1 m²)

Expand to show TLE details & history
Last TLE update: 4 days ago

TLE from 4 days ago
0 DELTA 1 DEB
1 10872U 76077DA  25343.04388219  .00000095  00000-0  11711-2 0  9994
2 10872 101.4800 359.1461 0099426   5.5542  53.1464 12.27123200208557
Epoch: 2025-12-09T01:03Z
TLE epoch observation values (Epoch: 2025-12-09T01:03:11.421Z)
Latitude
57.80953°
Longitude
-113.41172°
Altitude
1,524.357 km
Speed
7.13 km/s
True Right ascension
22h 41m 40s
True Declination
57° 40' 10"
Sunlit
Object was in daylight at epoch
Visualization orbit readout
Latitude
Unknown
Longitude
Unknown
Altitude
Unknown
Speed
Unknown
Apparent Right ascension
Unknown
Apparent Declination
Unknown
Sunlit
N/A
Visualization observer readout
Local Sidereal Time
22:58:34
Azimuth
Unknown
Elevation
Unknown
Doppler factor
Unknown
Orbital elements
Apogee altitude
1,638.145 km
Perigee altitude
1,480.309 km
Semi-major axis
7,937.364 km
Eccentricity
0.00994
Inclination
101.48°
RAAN
359.1461°
Arg. of periapsis
5.5542°
True anomaly
54.06487°
Mean anomaly
53.1464°
Eccentric anomaly
53.60495°
Mean motion
3.06922 °/min
Orbital period
117.29 mins
BSTAR
0.0011711
Loading maneuver chart data...
Computing Atmospheric mass density...
Loading historical data...
Loading historical data...
Loading historical data...
Loading historical data...
Loading historical data...
Loading historical data...
Loading historical data...

Documentation

Showing up to 5 results
|